EDT,Max TemperatureF,Mean TemperatureF,Min TemperatureF,Max Dew PointF,MeanDew PointF,Min DewpointF,Max Humidity, Mean Humidity, Min Humidity, Max Sea Level PressureIn, Mean Sea Level PressureIn, Min Sea Level PressureIn, Max VisibilityMiles, Mean VisibilityMiles, Min VisibilityMiles, Max Wind SpeedMPH, Mean Wind SpeedMPH, Max Gust SpeedMPH,PrecipitationIn, CloudCover, Events, WindDirDegrees
2013-3-1,24,20,16,15,12,10,78,72,60,30.12,30.08,30.00,10,10,7,14,7,21,0.00,5,Snow,360
2013-3-2,22,14,5,15,11,1,85,75,67,30.10,30.07,30.03,10,10,7,15,5,21,0.00,6,Snow,349
2013-3-3,23,12,1,14,8,-5,86,74,59,30.03,30.00,29.97,10,10,5,13,5,16,0.00,5,Snow,327
2013-3-4,32,18,3,16,12,-2,85,68,43,30.08,30.06,30.03,10,10,10,9,2,,0.00,2,Snow,349
2013-3-5,33,22,12,22,15,4,87,68,56,30.08,29.98,29.89,10,10,10,17,7,23,0.00,2,,67
2013-3-6,38,32,26,28,25,22,87,77,59,30.19,30.10,29.96,10,10,2,10,7,17,0.00,7,Snow,6
2013-3-7,31,22,12,27,18,9,86,73,54,30.37,30.29,30.19,10,10,4,14,7,22,0.00,7,Snow,334
2013-3-8,38,20,2,20,11,-3,85,64,39,30.45,30.39,30.33,10,10,10,10,1,16,0.00,0,,169
2013-3-9,38,28,18,31,22,14,85,67,48,30.32,30.15,29.93,10,10,7,15,5,24,0.00,4,Rain,150
2013-3-10,42,39,36,40,36,31,93,88,74,29.92,29.82,29.69,10,4,0,12,6,,0.00,8,Fog-Rain,140
2013-3-11,44,38,31,42,38,28,93,92,87,29.70,29.53,29.39,10,3,0,18,6,21,0.00,8,Fog-Rain-Snow,185
2013-3-12,31,28,24,28,23,19,88,80,65,29.80,29.71,29.55,10,7,1,20,10,25,0.00,8,Snow,254
2013-3-13,28,24,19,20,13,8,84,66,45,30.14,29.97,29.79,10,7,2,23,13,31,0.00,5,Snow,303
2013-3-14,36,24,11,19,13,6,87,62,38,30.18,30.11,29.97,10,10,10,13,6,18,0.00,1,,274
2013-3-15,33,28,24,29,22,10,88,73,55,29.97,29.87,29.83,10,8,2,14,10,23,0.00,7,Snow,316
2013-3-16,24,18,13,17,14,9,86,74,56,29.99,29.88,29.79,10,8,1,10,7,,0.00,7,Snow,355
2013-3-17,26,21,16,17,7,3,86,58,41,30.24,30.14,29.98,10,10,3,15,7,23,0.00,4,Snow,92
2013-3-18,32,24,16,28,18,8,88,77,57,30.12,29.76,29.47,10,7,1,21,12,29,0.00,4,Snow,116
2013-3-19,31,24,18,28,17,13,87,78,68,29.81,29.61,29.46,10,4,0,22,15,32,0.00,8,Snow,243
2013-3-20,23,18,13,16,11,7,86,71,57,29.86,29.82,29.79,10,7,1,18,9,25,0.00,7,Snow,266
2013-3-21,28,21,14,21,18,11,87,78,69,29.89,29.83,29.78,10,7,1,18,10,25,0.00,8,Snow,300
2013-3-22,31,26,21,24,19,14,78,75,70,29.98,29.92,29.89,10,10,10,15,9,21,0.00,8,,303
2013-3-23,32,28,24,23,21,19,84,73,63,30.07,30.03,29.98,10,10,10,9,5,16,0.00,8,,351
2013-3-24,36,28,19,24,19,14,85,66,44,30.04,29.88,29.74,10,10,10,16,6,23,0.00,5,,39
2013-3-25,34,28,23,25,22,15,86,73,61,29.95,29.81,29.71,10,10,0,14,9,21,0.00,7,Snow,354
2013-3-26,37,34,31,31,26,21,87,73,52,30.10,30.02,29.95,10,10,1,15,9,24,0.00,8,Snow,327
2013-3-27,39,34,28,27,23,20,81,65,48,30.18,30.13,30.09,10,10,10,20,9,29,0.00,1,,298
2013-3-28,43,34,26,25,21,18,77,59,39,30.23,30.20,30.17,10,10,2,12,5,18,0.00,0,,298
2013-3-29,44,31,18,25,17,14,86,59,32,30.23,30.20,30.16,10,10,10,10,1,,0.00,0,,343
2013-3-30,50,33,16,36,19,12,87,57,26,30.17,30.02,29.81,10,10,7,15,3,24,0.00,3,Rain,192
2013-3-31,41,34,28,39,34,19,92,86,67,29.80,29.65,29.59,10,4,0,18,10,30,0.00,8,Fog-Rain-Snow,245